When you browse on this site, cookies collect data to enhance your experience and personalize the content and advertising you see.
Visit our Privacy Policy to learn more. By continuing to use the site, you agree to this use of cookies and data.
  • In Österreich
  • Länderverzeichnis
  • Für 7 Tage
  • Wassertemperatur
  • Wetterkarte
  • News
  • Widgets
  • user-avatar
    Anmelden

    Stündliche Wetter Ituni

    Heute, 28 Januar, Dienstag

    Zeit Temperatur Niederschläge Wind Luftdruck Luftfeuchtigkeit
    00:00 +24°C° 0 mm 1 m/S 754 mmHg 98%
    01:00 +22°C° 0 mm 0 m/S 753 mmHg 98%
    02:00 +22°C° 0 mm 0 m/S 753 mmHg 99%
    03:00 +22°C° 0 mm 0 m/S 753 mmHg 99%
    04:00 +22°C° 0 mm 0 m/S 753 mmHg 99%
    05:00 +22°C° 0 mm 0 m/S 753 mmHg 99%
    06:00 +23°C° 0 mm 0 m/S 753 mmHg 96%
    07:00 +23°C° 0 mm 0 m/S 753 mmHg 93%
    08:00 +24°C° 0 mm 0 m/S 754 mmHg 90%
    09:00 +28°C° 0 mm 1 m/S 754 mmHg 81%
    10:00 +30°C° 0 mm 1 m/S 754 mmHg 73%
    11:00 +31°C° 0 mm 1 m/S 754 mmHg 64%
    12:00 +32°C° 0 mm 1 m/S 753 mmHg 59%
    13:00 +33°C° 0 mm 1 m/S 752 mmHg 54%
    14:00 +34°C° 0 mm 1 m/S 751 mmHg 50%
    15:00 +34°C° 0 mm 1 m/S 750 mmHg 53%
    16:00 +33°C° 0 mm 1 m/S 750 mmHg 56%
    17:00 +33°C° 0 mm 1 m/S 750 mmHg 60%
    18:00 +31°C° 0 mm 2 m/S 750 mmHg 66%
    19:00 +29°C° 0 mm 2 m/S 751 mmHg 73%
    20:00 +27°C° 0 mm 2 m/S 751 mmHg 80%
    21:00 +27°C° 0 mm 2 m/S 752 mmHg 83%
    22:00 +26°C° 0 mm 2 m/S 752 mmHg 86%
    23:00 +26°C° 0 mm 1 m/S 752 mmHg 90%

    Morgen, 29 Januar, Mittwoch

    Zeit Temperatur Niederschläge Wind Luftdruck Luftfeuchtigkeit
    00:00 +25°C° 0 mm 1 m/S 752 mmHg 92%
    01:00 +25°C° 0 mm 1 m/S 752 mmHg 93%
    02:00 +23°C° 0 mm 0 m/S 751 mmHg 95%
    03:00 +23°C° 0 mm 0 m/S 751 mmHg 95%
    04:00 +23°C° 0 mm 0 m/S 751 mmHg 94%
    05:00 +23°C° 0 mm 0 m/S 752 mmHg 94%
    06:00 +26°C° 0.1 mm 1 m/S 752 mmHg 91%
    07:00 +27°C° 0.1 mm 1 m/S 753 mmHg 88%
    08:00 +27°C° 0.1 mm 1 m/S 753 mmHg 86%
    09:00 +29°C° 0.2 mm 2 m/S 753 mmHg 76%
    10:00 +31°C° 0.2 mm 2 m/S 753 mmHg 66%
    11:00 +34°C° 0.2 mm 2 m/S 753 mmHg 57%
    12:00 +34°C° 0.2 mm 2 m/S 753 mmHg 56%
    13:00 +35°C° 0.2 mm 2 m/S 752 mmHg 55%
    14:00 +35°C° 0.2 mm 2 m/S 751 mmHg 54%
    15:00 +34°C° 0.3 mm 2 m/S 750 mmHg 59%
    16:00 +32°C° 0.3 mm 2 m/S 750 mmHg 63%
    17:00 +31°C° 0.3 mm 2 m/S 750 mmHg 68%
    18:00 +29°C° 0 mm 2 m/S 750 mmHg 73%
    19:00 +28°C° 0 mm 2 m/S 751 mmHg 78%
    20:00 +26°C° 0 mm 2 m/S 752 mmHg 82%
    21:00 +26°C° 0 mm 1 m/S 752 mmHg 86%
    22:00 +25°C° 0 mm 1 m/S 752 mmHg 89%
    23:00 +25°C° 0 mm 1 m/S 752 mmHg 93%

    übermorgen, 30 Januar, Donnerstag

    Zeit Temperatur Niederschläge Wind Luftdruck Luftfeuchtigkeit
    00:00 +25°C° 0 mm 1 m/S 752 mmHg 94%
    01:00 +24°C° 0 mm 1 m/S 752 mmHg 95%
    02:00 +24°C° 0 mm 1 m/S 752 mmHg 96%
    03:00 +25°C° 0 mm 1 m/S 752 mmHg 95%
    04:00 +25°C° 0 mm 1 m/S 752 mmHg 93%
    05:00 +25°C° 0 mm 1 m/S 752 mmHg 92%
    06:00 +25°C° 0.2 mm 1 m/S 753 mmHg 92%
    07:00 +26°C° 0.2 mm 1 m/S 753 mmHg 92%
    08:00 +26°C° 0.2 mm 1 m/S 754 mmHg 92%
    09:00 +27°C° 0.2 mm 1 m/S 754 mmHg 84%
    10:00 +29°C° 0.2 mm 2 m/S 754 mmHg 76%
    11:00 +31°C° 0.2 mm 2 m/S 754 mmHg 68%
    12:00 +31°C° 0.5 mm 2 m/S 753 mmHg 66%
    13:00 +32°C° 0.5 mm 2 m/S 752 mmHg 64%
    14:00 +33°C° 0.5 mm 3 m/S 751 mmHg 62%
    15:00 +31°C° 0.3 mm 3 m/S 751 mmHg 66%
    16:00 +30°C° 0.3 mm 2 m/S 751 mmHg 70%
    17:00 +30°C° 0.3 mm 2 m/S 751 mmHg 73%
    18:00 +28°C° 0 mm 2 m/S 752 mmHg 77%
    19:00 +27°C° 0 mm 2 m/S 752 mmHg 81%
    20:00 +26°C° 0 mm 2 m/S 753 mmHg 86%
    21:00 +25°C° 0 mm 1 m/S 753 mmHg 88%
    22:00 +25°C° 0 mm 1 m/S 753 mmHg 90%
    23:00 +24°C° 0 mm 1 m/S 754 mmHg 92%

    31 Januar, Freitag

    Zeit Temperatur Niederschläge Wind Luftdruck Luftfeuchtigkeit
    00:00 +24°C° 0 mm 1 m/S 753 mmHg 94%
    01:00 +24°C° 0 mm 1 m/S 753 mmHg 95%
    02:00 +21°C° 0 mm 0 m/S 752 mmHg 97%
    03:00 +21°C° 0 mm 0 m/S 752 mmHg 97%
    04:00 +21°C° 0 mm 0 m/S 752 mmHg 98%
    05:00 +21°C° 0 mm 0 m/S 752 mmHg 98%
    06:00 +24°C° 0 mm 1 m/S 753 mmHg 94%
    07:00 +25°C° 0 mm 1 m/S 754 mmHg 90%
    08:00 +26°C° 0 mm 1 m/S 754 mmHg 85%
    09:00 +28°C° 0.3 mm 1 m/S 754 mmHg 79%
    10:00 +29°C° 0.3 mm 2 m/S 754 mmHg 73%
    11:00 +31°C° 0.3 mm 2 m/S 754 mmHg 66%
    12:00 +32°C° 0.2 mm 2 m/S 753 mmHg 62%
    13:00 +32°C° 0.2 mm 2 m/S 753 mmHg 59%
    14:00 +34°C° 0.2 mm 3 m/S 752 mmHg 55%
    15:00 +32°C° 0.1 mm 2 m/S 751 mmHg 59%
    16:00 +31°C° 0.1 mm 2 m/S 751 mmHg 64%
    17:00 +30°C° 0.1 mm 2 m/S 751 mmHg 68%
    18:00 +29°C° 0 mm 2 m/S 752 mmHg 73%
    19:00 +27°C° 0 mm 2 m/S 752 mmHg 78%
    20:00 +26°C° 0 mm 2 m/S 753 mmHg 83%
    21:00 +26°C° 0 mm 2 m/S 753 mmHg 84%
    22:00 +26°C° 0 mm 1 m/S 754 mmHg 86%
    23:00 +26°C° 0 mm 1 m/S 754 mmHg 87%

    1 Februar, Samstag

    Zeit Temperatur Niederschläge Wind Luftdruck Luftfeuchtigkeit
    00:00 +25°C° 0 mm 1 m/S 753 mmHg 88%
    01:00 +25°C° 0 mm 1 m/S 753 mmHg 88%
    02:00 +25°C° 0 mm 1 m/S 753 mmHg 89%
    03:00 +25°C° 0.1 mm 1 m/S 753 mmHg 92%
    04:00 +24°C° 0.1 mm 1 m/S 753 mmHg 94%
    05:00 +24°C° 0.1 mm 1 m/S 753 mmHg 97%
    06:00 +25°C° 0.1 mm 1 m/S 753 mmHg 93%
    07:00 +25°C° 0.1 mm 1 m/S 754 mmHg 90%
    08:00 +26°C° 0.1 mm 2 m/S 754 mmHg 86%
    09:00 +27°C° 0.1 mm 2 m/S 754 mmHg 79%
    10:00 +28°C° 0.1 mm 2 m/S 754 mmHg 72%
    11:00 +29°C° 0.1 mm 2 m/S 754 mmHg 65%
    12:00 +30°C° 0 mm 3 m/S 754 mmHg 61%
    13:00 +31°C° 0 mm 3 m/S 753 mmHg 56%
    14:00 +34°C° 0 mm 3 m/S 752 mmHg 52%
    15:00 +33°C° 0 mm 3 m/S 752 mmHg 55%
    16:00 +31°C° 0 mm 3 m/S 752 mmHg 59%
    17:00 +30°C° 0 mm 3 m/S 751 mmHg 62%
    18:00 +28°C° 0 mm 2 m/S 752 mmHg 67%
    19:00 +27°C° 0 mm 2 m/S 752 mmHg 73%
    20:00 +25°C° 0 mm 2 m/S 753 mmHg 78%
    21:00 +25°C° 0 mm 1 m/S 753 mmHg 82%
    22:00 +24°C° 0 mm 1 m/S 753 mmHg 86%
    23:00 +24°C° 0 mm 1 m/S 753 mmHg 89%

    2 Februar, Sonntag

    Zeit Temperatur Niederschläge Wind Luftdruck Luftfeuchtigkeit
    00:00 +23°C° 0 mm 1 m/S 753 mmHg 91%
    01:00 +23°C° 0 mm 1 m/S 753 mmHg 93%
    02:00 +23°C° 0 mm 1 m/S 752 mmHg 95%
    03:00 +20°C° 0 mm 0 m/S 752 mmHg 96%
    04:00 +20°C° 0 mm 0 m/S 752 mmHg 97%
    05:00 +20°C° 0 mm 0 m/S 752 mmHg 98%
    06:00 +21°C° 0 mm 0 m/S 753 mmHg 94%
    07:00 +22°C° 0 mm 0 m/S 753 mmHg 90%
    08:00 +23°C° 0 mm 0 m/S 754 mmHg 86%
    09:00 +27°C° 0.1 mm 1 m/S 754 mmHg 76%
    10:00 +29°C° 0.1 mm 1 m/S 754 mmHg 67%
    11:00 +30°C° 0.1 mm 2 m/S 754 mmHg 57%
    12:00 +31°C° 0 mm 2 m/S 754 mmHg 55%
    13:00 +32°C° 0 mm 2 m/S 753 mmHg 52%
    14:00 +32°C° 0 mm 2 m/S 752 mmHg 50%
    15:00 +32°C° 0 mm 2 m/S 752 mmHg 51%
    16:00 +32°C° 0 mm 2 m/S 751 mmHg 53%
    17:00 +31°C° 0 mm 1 m/S 751 mmHg 54%
    18:00 +29°C° 0 mm 2 m/S 751 mmHg 62%
    19:00 +27°C° 0 mm 2 m/S 752 mmHg 70%
    20:00 +25°C° 0 mm 2 m/S 752 mmHg 78%
    21:00 +25°C° 0 mm 1 m/S 752 mmHg 82%
    22:00 +24°C° 0 mm 1 m/S 753 mmHg 86%
    23:00 +24°C° 0 mm 1 m/S 753 mmHg 90%
    Mehr zeigen